owner,sensor,date,latitude,longitude,vertical_datum,wind_speed,wind_to_direction,wind_speed_of_gust,qcFlag 
TCOON,ioos:station:TCOON:009:1,2017-12-01T00:00:00Z,27.8398,-97.0727,0.0,2.7,98.0,4.2,'11111222,11111222,11111222' 
TCOON,ioos:station:TCOON:009:1,2017-12-01T00:06:00Z,27.8398,-97.0727,0.0,2.3,95.0,3.9,'11111222,11111222,11111222' 
TCOON,ioos:station:TCOON:009:1,2017-12-01T00:12:00Z,27.8398,-97.0727,0.0,3.0,100.0,4.4,'11111222,11111222,11111222' 
TCOON,ioos:station:TCOON:009:1,2017-12-01T00:18:00Z,27.8398,-97.0727,0.0,3.0,100.0,4.4,'1111122,1111122,1111122' 
TCOON,ioos:station:TCOON:009:1,2017-12-01T00:24:00Z,27.8398,-97.0727,0.0,3.1,100.0,4.0,'11111222,11111222,11111222' 
TCOON,ioos:station:TCOON:009:1,2017-12-01T00:30:00Z,27.8398,-97.0727,0.0,3.2,102.0,4.2,'11111222,11111222,11111222' 
TCOON,ioos:station:TCOON:009:1,2017-12-01T00:36:00Z,27.8398,-97.0727,0.0,3.2,100.0,4.0,'11111222,11111222,11111222' 
TCOON,ioos:station:TCOON:009:1,2017-12-01T00:42:00Z,27.8398,-97.0727,0.0,2.9,99.0,4.2,'11111222,11111222,11111222' 
TCOON,ioos:station:TCOON:009:1,2017-12-01T00:48:00Z,27.8398,-97.0727,0.0,2.8,101.0,4.0,'11111222,11111222,11111222' 
TCOON,ioos:station:TCOON:009:1,2017-12-01T00:54:00Z,27.8398,-97.0727,0.0,3.4,101.0,4.3,'11111222,11111222,11111222' 
TCOON,ioos:station:TCOON:009:1,2017-12-01T01:00:00Z,27.8398,-97.0727,0.0,2.7,102.0,3.7,'11111222,11111222,11111222' 
TCOON,ioos:station:TCOON:009:1,2017-12-01T01:06:00Z,27.8398,-97.0727,0.0,3.3,100.0,4.2,'11111222,11111222,11111222' 
TCOON,ioos:station:TCOON:009:1,2017-12-01T01:12:00Z,27.8398,-97.0727,0.0,3.4,101.0,4.3,'11111222,11111222,11111222' 
TCOON,ioos:station:TCOON:009:1,2017-12-01T01:18:00Z,27.8398,-97.0727,0.0,3.4,101.0,4.3,'1111122,1111122,1111122' 
TCOON,ioos:station:TCOON:009:1,2017-12-01T01:24:00Z,27.8398,-97.0727,0.0,3.1,104.0,4.1,'11111222,11111222,11111222' 
TCOON,ioos:station:TCOON:009:1,2017-12-01T01:30:00Z,27.8398,-97.0727,0.0,3.0,105.0,4.5,'11111222,11111222,11111222' 
TCOON,ioos:station:TCOON:009:1,2017-12-01T01:36:00Z,27.8398,-97.0727,0.0,2.8,102.0,3.7,'11111222,11111222,11111222' 
TCOON,ioos:station:TCOON:009:1,2017-12-01T01:42:00Z,27.8398,-97.0727,0.0,2.4,104.0,3.4,'11111222,11111222,11111222' 
TCOON,ioos:station:TCOON:009:1,2017-12-01T01:48:00Z,27.8398,-97.0727,0.0,2.9,102.0,4.1,'11111222,11111222,11111222' 
TCOON,ioos:station:TCOON:009:1,2017-12-01T01:54:00Z,27.8398,-97.0727,0.0,2.7,103.0,3.7,'11111222,11111222,11111222' 
TCOON,ioos:station:TCOON:009:1,2017-12-01T02:00:00Z,27.8398,-97.0727,0.0,2.8,107.0,3.8,'11111222,11111222,11111222' 
TCOON,ioos:station:TCOON:009:1,2017-12-01T02:06:00Z,27.8398,-97.0727,0.0,2.8,108.0,3.8,'11111222,11111222,11111222' 
TCOON,ioos:station:TCOON:009:1,2017-12-01T02:12:00Z,27.8398,-97.0727,0.0,2.3,101.0,3.8,'11111222,11111222,11111222' 
TCOON,ioos:station:TCOON:009:1,2017-12-01T02:18:00Z,27.8398,-97.0727,0.0,2.3,101.0,3.8,'1111122,1111122,1111122' 
TCOON,ioos:station:TCOON:009:1,2017-12-01T02:24:00Z,27.8398,-97.0727,0.0,2.2,106.0,2.9,'11111222,11111222,11111222' 
TCOON,ioos:station:TCOON:009:1,2017-12-01T02:30:00Z,27.8398,-97.0727,0.0,2.2,98.0,3.2,'11111222,11111222,11111222' 
TCOON,ioos:station:TCOON:009:1,2017-12-01T02:36:00Z,27.8398,-97.0727,0.0,2.1,97.0,2.7,'11111222,11111222,11111222' 
TCOON,ioos:station:TCOON:009:1,2017-12-01T02:42:00Z,27.8398,-97.0727,0.0,1.9,92.0,3.5,'11111222,11111222,11111222' 
TCOON,ioos:station:TCOON:009:1,2017-12-01T02:48:00Z,27.8398,-97.0727,0.0,1.9,96.0,2.2,'11111222,11111222,11111222' 
TCOON,ioos:station:TCOON:009:1,2017-12-01T02:54:00Z,27.8398,-97.0727,0.0,2.1,99.0,2.6,'11111222,11111222,11111222' 
TCOON,ioos:station:TCOON:009:1,2017-12-01T03:00:00Z,27.8398,-97.0727,0.0,2.1,94.0,2.8,'11111222,11111222,11111222' 
TCOON,ioos:station:TCOON:009:1,2017-12-01T03:06:00Z,27.8398,-97.0727,0.0,1.9,95.0,2.6,'11111222,11111222,11111222' 
TCOON,ioos:station:TCOON:009:1,2017-12-01T03:12:00Z,27.8398,-97.0727,0.0,2.2,94.0,2.7,'11111222,11111222,11111222' 
TCOON,ioos:station:TCOON:009:1,2017-12-01T03:18:00Z,27.8398,-97.0727,0.0,2.2,94.0,2.7,'1111122,1111122,1111122' 
TCOON,ioos:station:TCOON:009:1,2017-12-01T03:24:00Z,27.8398,-97.0727,0.0,2.3,92.0,2.9,'11111222,11111222,11111222' 
TCOON,ioos:station:TCOON:009:1,2017-12-01T03:30:00Z,27.8398,-97.0727,0.0,2.4,91.0,3.0,'11111222,11111222,11111222' 
TCOON,ioos:station:TCOON:009:1,2017-12-01T03:36:00Z,27.8398,-97.0727,0.0,2.1,93.0,3.1,'11111222,11111222,11111222' 
TCOON,ioos:station:TCOON:009:1,2017-12-01T03:42:00Z,27.8398,-97.0727,0.0,2.4,90.0,3.0,'11111222,11111222,11111222' 
TCOON,ioos:station:TCOON:009:1,2017-12-01T03:48:00Z,27.8398,-97.0727,0.0,2.3,89.0,2.9,'11111222,11111222,11111222' 
TCOON,ioos:station:TCOON:009:1,2017-12-01T03:54:00Z,27.8398,-97.0727,0.0,2.3,86.0,3.3,'11111222,11111222,11111222' 
TCOON,ioos:station:TCOON:009:1,2017-12-01T04:00:00Z,27.8398,-97.0727,0.0,2.3,87.0,3.1,'11111222,11111222,11111222' 
TCOON,ioos:station:TCOON:009:1,2017-12-01T04:06:00Z,27.8398,-97.0727,0.0,2.3,84.0,2.7,'11111222,11111222,11111222' 
TCOON,ioos:station:TCOON:009:1,2017-12-01T04:12:00Z,27.8398,-97.0727,0.0,2.1,81.0,3.1,'11111222,11111222,11111222' 
TCOON,ioos:station:TCOON:009:1,2017-12-01T04:18:00Z,27.8398,-97.0727,0.0,2.1,81.0,3.1,'1111122,1111122,1111122' 
TCOON,ioos:station:TCOON:009:1,2017-12-01T04:24:00Z,27.8398,-97.0727,0.0,2.3,84.0,3.1,'11111222,11111222,11111222' 
TCOON,ioos:station:TCOON:009:1,2017-12-01T04:30:00Z,27.8398,-97.0727,0.0,2.4,76.0,3.1,'11111222,11111222,11111222' 
TCOON,ioos:station:TCOON:009:1,2017-12-01T04:36:00Z,27.8398,-97.0727,0.0,2.4,79.0,3.5,'11111222,11111222,11111222' 
TCOON,ioos:station:TCOON:009:1,2017-12-01T04:42:00Z,27.8398,-97.0727,0.0,2.0,82.0,2.9,'11111222,11111222,11111222' 
TCOON,ioos:station:TCOON:009:1,2017-12-01T04:48:00Z,27.8398,-97.0727,0.0,1.9,87.0,2.8,'11111222,11111222,11111222' 
TCOON,ioos:station:TCOON:009:1,2017-12-01T04:54:00Z,27.8398,-97.0727,0.0,2.1,80.0,2.7,'11111222,11111222,11111222' 
TCOON,ioos:station:TCOON:009:1,2017-12-01T05:00:00Z,27.8398,-97.0727,0.0,2.2,80.0,3.2,'11111222,11111222,11111222' 
TCOON,ioos:station:TCOON:009:1,2017-12-01T05:06:00Z,27.8398,-97.0727,0.0,2.9,74.0,3.6,'11111222,11111222,11111222' 
TCOON,ioos:station:TCOON:009:1,2017-12-01T05:12:00Z,27.8398,-97.0727,0.0,3.2,76.0,4.1,'11111222,11111222,11111222' 
TCOON,ioos:station:TCOON:009:1,2017-12-01T05:18:00Z,27.8398,-97.0727,0.0,3.2,76.0,4.1,'1111122,1111122,1111122' 
TCOON,ioos:station:TCOON:009:1,2017-12-01T05:24:00Z,27.8398,-97.0727,0.0,2.9,72.0,3.5,'11111222,11111222,11111222' 
TCOON,ioos:station:TCOON:009:1,2017-12-01T05:30:00Z,27.8398,-97.0727,0.0,2.2,78.0,3.6,'11111222,11111222,11111222' 
TCOON,ioos:station:TCOON:009:1,2017-12-01T05:36:00Z,27.8398,-97.0727,0.0,2.7,74.0,3.4,'11111222,11111222,11111222' 
TCOON,ioos:station:TCOON:009:1,2017-12-01T05:42:00Z,27.8398,-97.0727,0.0,2.4,77.0,3.5,'11111222,11111222,11111222' 
TCOON,ioos:station:TCOON:009:1,2017-12-01T05:48:00Z,27.8398,-97.0727,0.0,2.6,77.0,3.3,'11111222,11111222,11111222' 
TCOON,ioos:station:TCOON:009:1,2017-12-01T05:54:00Z,27.8398,-97.0727,0.0,3.2,73.0,3.9,'11111222,11111222,11111222' 
TCOON,ioos:station:TCOON:009:1,2017-12-01T06:00:00Z,27.8398,-97.0727,0.0,3.3,72.0,4.3,'11111222,11111222,11111222' 
TCOON,ioos:station:TCOON:009:1,2017-12-01T06:06:00Z,27.8398,-97.0727,0.0,3.5,69.0,4.5,'11111222,11111222,11111222' 
TCOON,ioos:station:TCOON:009:1,2017-12-01T06:12:00Z,27.8398,-97.0727,0.0,3.9,70.0,4.7,'11111222,11111222,11111222' 
TCOON,ioos:station:TCOON:009:1,2017-12-01T06:18:00Z,27.8398,-97.0727,0.0,3.9,70.0,4.7,'1111122,1111122,1111122' 
TCOON,ioos:station:TCOON:009:1,2017-12-01T06:24:00Z,27.8398,-97.0727,0.0,3.8,72.0,4.5,'11111222,11111222,11111222' 
TCOON,ioos:station:TCOON:009:1,2017-12-01T06:30:00Z,27.8398,-97.0727,0.0,3.4,72.0,4.8,'11111222,11111222,11111222' 
TCOON,ioos:station:TCOON:009:1,2017-12-01T06:36:00Z,27.8398,-97.0727,0.0,3.8,71.0,4.8,'11111222,11111222,11111222' 
TCOON,ioos:station:TCOON:009:1,2017-12-01T06:42:00Z,27.8398,-97.0727,0.0,3.7,72.0,4.8,'11111222,11111222,11111222' 
TCOON,ioos:station:TCOON:009:1,2017-12-01T06:48:00Z,27.8398,-97.0727,0.0,3.0,75.0,3.8,'11111222,11111222,11111222' 
TCOON,ioos:station:TCOON:009:1,2017-12-01T06:54:00Z,27.8398,-97.0727,0.0,3.1,79.0,4.3,'11111222,11111222,11111222' 
TCOON,ioos:station:TCOON:009:1,2017-12-01T07:00:00Z,27.8398,-97.0727,0.0,2.8,77.0,4.5,'11111222,11111222,11111222' 
TCOON,ioos:station:TCOON:009:1,2017-12-01T07:06:00Z,27.8398,-97.0727,0.0,3.0,73.0,4.3,'11111222,11111222,11111222' 
TCOON,ioos:station:TCOON:009:1,2017-12-01T07:12:00Z,27.8398,-97.0727,0.0,2.5,84.0,4.2,'11111222,11111222,11111222' 
TCOON,ioos:station:TCOON:009:1,2017-12-01T07:18:00Z,27.8398,-97.0727,0.0,2.5,84.0,4.2,'1111122,1111122,1111122' 
TCOON,ioos:station:TCOON:009:1,2017-12-01T07:24:00Z,27.8398,-97.0727,0.0,2.4,79.0,3.5,'11111222,11111222,11111222' 
TCOON,ioos:station:TCOON:009:1,2017-12-01T07:30:00Z,27.8398,-97.0727,0.0,2.7,76.0,4.0,'11111222,11111222,11111222' 
TCOON,ioos:station:TCOON:009:1,2017-12-01T07:36:00Z,27.8398,-97.0727,0.0,3.4,77.0,4.3,'11111222,11111222,11111222' 
TCOON,ioos:station:TCOON:009:1,2017-12-01T07:42:00Z,27.8398,-97.0727,0.0,2.5,81.0,4.5,'11111222,11111222,11111222' 
TCOON,ioos:station:TCOON:009:1,2017-12-01T07:48:00Z,27.8398,-97.0727,0.0,2.3,78.0,3.5,'11111222,11111222,11111222' 
TCOON,ioos:station:TCOON:009:1,2017-12-01T07:54:00Z,27.8398,-97.0727,0.0,1.9,79.0,3.2,'11111222,11111222,11111222' 
TCOON,ioos:station:TCOON:009:1,2017-12-01T08:00:00Z,27.8398,-97.0727,0.0,3.4,71.0,4.1,'11111222,11111222,11111222' 
TCOON,ioos:station:TCOON:009:1,2017-12-01T08:06:00Z,27.8398,-97.0727,0.0,3.2,71.0,4.0,'11111222,11111222,11111222' 
TCOON,ioos:station:TCOON:009:1,2017-12-01T08:12:00Z,27.8398,-97.0727,0.0,3.4,72.0,4.1,'11111222,11111222,11111222' 
TCOON,ioos:station:TCOON:009:1,2017-12-01T08:18:00Z,27.8398,-97.0727,0.0,3.4,72.0,4.1,'1111122,1111122,1111122' 
TCOON,ioos:station:TCOON:009:1,2017-12-01T08:24:00Z,27.8398,-97.0727,0.0,3.2,66.0,3.9,'11111222,11111222,11111222' 
TCOON,ioos:station:TCOON:009:1,2017-12-01T08:30:00Z,27.8398,-97.0727,0.0,3.3,52.0,3.9,'11111222,11111222,11111222' 
TCOON,ioos:station:TCOON:009:1,2017-12-01T08:36:00Z,27.8398,-97.0727,0.0,3.1,50.0,3.9,'11111222,11111222,11111222' 
TCOON,ioos:station:TCOON:009:1,2017-12-01T08:42:00Z,27.8398,-97.0727,0.0,3.2,53.0,3.6,'11111222,11111222,11111222' 
TCOON,ioos:station:TCOON:009:1,2017-12-01T08:48:00Z,27.8398,-97.0727,0.0,2.5,49.0,3.2,'11111222,11111222,11111222' 
TCOON,ioos:station:TCOON:009:1,2017-12-01T08:54:00Z,27.8398,-97.0727,0.0,2.6,56.0,3.1,'11111222,11111222,11111222' 
TCOON,ioos:station:TCOON:009:1,2017-12-01T09:00:00Z,27.8398,-97.0727,0.0,2.4,53.0,3.2,'11111222,11111222,11111222' 
TCOON,ioos:station:TCOON:009:1,2017-12-01T09:06:00Z,27.8398,-97.0727,0.0,2.7,49.0,3.0,'11111222,11111222,11111222' 
TCOON,ioos:station:TCOON:009:1,2017-12-01T09:12:00Z,27.8398,-97.0727,0.0,2.5,51.0,3.0,'11111222,11111222,11111222' 
TCOON,ioos:station:TCOON:009:1,2017-12-01T09:18:00Z,27.8398,-97.0727,0.0,2.5,51.0,3.0,'1111122,1111122,1111122' 
TCOON,ioos:station:TCOON:009:1,2017-12-01T09:24:00Z,27.8398,-97.0727,0.0,2.5,43.0,3.0,'11111222,11111222,11111222' 
TCOON,ioos:station:TCOON:009:1,2017-12-01T09:30:00Z,27.8398,-97.0727,0.0,2.6,46.0,3.0,'11111222,11111222,11111222' 
TCOON,ioos:station:TCOON:009:1,2017-12-01T09:36:00Z,27.8398,-97.0727,0.0,2.6,44.0,3.0,'11111222,11111222,11111222' 
TCOON,ioos:station:TCOON:009:1,2017-12-01T09:42:00Z,27.8398,-97.0727,0.0,2.2,40.0,3.2,'11111222,11111222,11111222' 
TCOON,ioos:station:TCOON:009:1,2017-12-01T09:48:00Z,27.8398,-97.0727,0.0,2.3,45.0,3.1,'11111222,11111222,11111222' 
TCOON,ioos:station:TCOON:009:1,2017-12-01T09:54:00Z,27.8398,-97.0727,0.0,2.6,48.0,3.3,'11111222,11111222,11111222' 
TCOON,ioos:station:TCOON:009:1,2017-12-01T10:00:00Z,27.8398,-97.0727,0.0,2.3,48.0,3.2,'11111222,11111222,11111222' 
TCOON,ioos:station:TCOON:009:1,2017-12-01T10:06:00Z,27.8398,-97.0727,0.0,2.4,44.0,3.3,'11111222,11111222,11111222' 
TCOON,ioos:station:TCOON:009:1,2017-12-01T10:12:00Z,27.8398,-97.0727,0.0,2.7,40.0,3.2,'11111222,11111222,11111222' 
TCOON,ioos:station:TCOON:009:1,2017-12-01T10:18:00Z,27.8398,-97.0727,0.0,2.7,40.0,3.2,'1111122,1111122,1111122' 
TCOON,ioos:station:TCOON:009:1,2017-12-01T10:24:00Z,27.8398,-97.0727,0.0,1.5,26.0,1.9,'11111222,11111222,11111222' 
TCOON,ioos:station:TCOON:009:1,2017-12-01T10:30:00Z,27.8398,-97.0727,0.0,1.5,30.0,2.0,'11111222,11111222,11111222' 
TCOON,ioos:station:TCOON:009:1,2017-12-01T10:36:00Z,27.8398,-97.0727,0.0,0.9,9.0,1.6,'11111222,11111222,11111222' 
TCOON,ioos:station:TCOON:009:1,2017-12-01T10:42:00Z,27.8398,-97.0727,0.0,1.1,29.0,1.4,'11111222,11111222,11111222' 
TCOON,ioos:station:TCOON:009:1,2017-12-01T10:48:00Z,27.8398,-97.0727,0.0,0.9,39.0,1.3,'11111222,11111222,11111222' 
TCOON,ioos:station:TCOON:009:1,2017-12-01T10:54:00Z,27.8398,-97.0727,0.0,1.1,65.0,1.3,'11111222,11111222,11111222' 
TCOON,ioos:station:TCOON:009:1,2017-12-01T11:00:00Z,27.8398,-97.0727,0.0,1.1,42.0,1.6,'11111222,11111222,11111222' 
TCOON,ioos:station:TCOON:009:1,2017-12-01T11:06:00Z,27.8398,-97.0727,0.0,2.0,51.0,2.3,'11111222,11111222,11111222' 
TCOON,ioos:station:TCOON:009:1,2017-12-01T11:12:00Z,27.8398,-97.0727,0.0,2.7,49.0,3.0,'11111222,11111222,11111222' 
TCOON,ioos:station:TCOON:009:1,2017-12-01T11:18:00Z,27.8398,-97.0727,0.0,2.7,49.0,3.0,'1111122,1111122,1111122' 
TCOON,ioos:station:TCOON:009:1,2017-12-01T11:24:00Z,27.8398,-97.0727,0.0,2.4,31.0,3.0,'11111222,11111222,11111222' 
TCOON,ioos:station:TCOON:009:1,2017-12-01T11:30:00Z,27.8398,-97.0727,0.0,1.9,23.0,2.5,'11111222,11111222,11111222' 
TCOON,ioos:station:TCOON:009:1,2017-12-01T11:36:00Z,27.8398,-97.0727,0.0,3.0,11.0,3.8,'11111222,11111222,11111222' 
TCOON,ioos:station:TCOON:009:1,2017-12-01T11:42:00Z,27.8398,-97.0727,0.0,2.7,10.0,3.8,'11111222,11111222,11111222' 
TCOON,ioos:station:TCOON:009:1,2017-12-01T11:48:00Z,27.8398,-97.0727,0.0,2.7,14.0,3.7,'11111222,11111222,11111222' 
TCOON,ioos:station:TCOON:009:1,2017-12-01T11:54:00Z,27.8398,-97.0727,0.0,2.7,10.0,3.2,'11111222,11111222,11111222' 
TCOON,ioos:station:TCOON:009:1,2017-12-01T12:00:00Z,27.8398,-97.0727,0.0,2.8,15.0,3.2,'11111222,11111222,11111222' 
TCOON,ioos:station:TCOON:009:1,2017-12-01T12:06:00Z,27.8398,-97.0727,0.0,3.0,21.0,3.8,'11111222,11111222,11111222' 
TCOON,ioos:station:TCOON:009:1,2017-12-01T12:12:00Z,27.8398,-97.0727,0.0,3.0,18.0,3.9,'11111222,11111222,11111222' 
TCOON,ioos:station:TCOON:009:1,2017-12-01T12:18:00Z,27.8398,-97.0727,0.0,3.0,18.0,3.9,'1111122,1111122,1111122' 
TCOON,ioos:station:TCOON:009:1,2017-12-01T12:24:00Z,27.8398,-97.0727,0.0,3.5,13.0,4.0,'11111222,11111222,11111222' 
TCOON,ioos:station:TCOON:009:1,2017-12-01T12:30:00Z,27.8398,-97.0727,0.0,2.8,9.0,3.8,'11111222,11111222,11111222' 
TCOON,ioos:station:TCOON:009:1,2017-12-01T12:36:00Z,27.8398,-97.0727,0.0,2.9,14.0,3.9,'11111222,11111222,11111222' 
TCOON,ioos:station:TCOON:009:1,2017-12-01T12:42:00Z,27.8398,-97.0727,0.0,2.5,9.0,3.4,'11111222,11111222,11111222' 
TCOON,ioos:station:TCOON:009:1,2017-12-01T12:48:00Z,27.8398,-97.0727,0.0,2.8,19.0,3.4,'11111222,11111222,11111222' 
TCOON,ioos:station:TCOON:009:1,2017-12-01T12:54:00Z,27.8398,-97.0727,0.0,3.9,24.0,4.5,'11111222,11111222,11111222' 
TCOON,ioos:station:TCOON:009:1,2017-12-01T13:00:00Z,27.8398,-97.0727,0.0,3.6,23.0,4.5,'11111222,11111222,11111222' 
TCOON,ioos:station:TCOON:009:1,2017-12-01T13:06:00Z,27.8398,-97.0727,0.0,3.9,26.0,4.8,'11111222,11111222,11111222' 
TCOON,ioos:station:TCOON:009:1,2017-12-01T13:12:00Z,27.8398,-97.0727,0.0,3.8,26.0,4.6,'11111222,11111222,11111222' 
TCOON,ioos:station:TCOON:009:1,2017-12-01T13:18:00Z,27.8398,-97.0727,0.0,3.8,26.0,4.6,'1111122,1111122,1111122' 
TCOON,ioos:station:TCOON:009:1,2017-12-01T13:24:00Z,27.8398,-97.0727,0.0,3.7,26.0,4.7,'11111222,11111222,11111222' 
TCOON,ioos:station:TCOON:009:1,2017-12-01T13:30:00Z,27.8398,-97.0727,0.0,3.5,12.0,4.6,'11111222,11111222,11111222' 
TCOON,ioos:station:TCOON:009:1,2017-12-01T13:36:00Z,27.8398,-97.0727,0.0,3.2,14.0,4.2,'11111222,11111222,11111222' 
TCOON,ioos:station:TCOON:009:1,2017-12-01T13:42:00Z,27.8398,-97.0727,0.0,3.5,21.0,4.5,'11111222,11111222,11111222' 
TCOON,ioos:station:TCOON:009:1,2017-12-01T13:48:00Z,27.8398,-97.0727,0.0,3.4,25.0,4.5,'11111222,11111222,11111222' 
TCOON,ioos:station:TCOON:009:1,2017-12-01T13:54:00Z,27.8398,-97.0727,0.0,3.5,27.0,4.2,'11111222,11111222,11111222' 
TCOON,ioos:station:TCOON:009:1,2017-12-01T14:00:00Z,27.8398,-97.0727,0.0,3.5,24.0,4.1,'11111222,11111222,11111222' 
TCOON,ioos:station:TCOON:009:1,2017-12-01T14:06:00Z,27.8398,-97.0727,0.0,3.6,26.0,4.7,'11111222,11111222,11111222' 
TCOON,ioos:station:TCOON:009:1,2017-12-01T14:12:00Z,27.8398,-97.0727,0.0,3.7,23.0,4.7,'11111222,11111222,11111222' 
TCOON,ioos:station:TCOON:009:1,2017-12-01T14:18:00Z,27.8398,-97.0727,0.0,3.7,23.0,4.7,'1111122,1111122,1111122' 
TCOON,ioos:station:TCOON:009:1,2017-12-01T14:24:00Z,27.8398,-97.0727,0.0,4.5,23.0,5.6,'11111222,11111222,11111222' 
TCOON,ioos:station:TCOON:009:1,2017-12-01T14:30:00Z,27.8398,-97.0727,0.0,4.2,22.0,5.3,'11111222,11111222,11111222' 
TCOON,ioos:station:TCOON:009:1,2017-12-01T14:36:00Z,27.8398,-97.0727,0.0,5.7,22.0,6.3,'11111222,11111222,11111222' 
TCOON,ioos:station:TCOON:009:1,2017-12-01T14:42:00Z,27.8398,-97.0727,0.0,4.5,24.0,6.2,'11111222,11111222,11111222' 
TCOON,ioos:station:TCOON:009:1,2017-12-01T14:48:00Z,27.8398,-97.0727,0.0,5.0,28.0,5.8,'11111222,11111222,11111222' 
TCOON,ioos:station:TCOON:009:1,2017-12-01T14:54:00Z,27.8398,-97.0727,0.0,4.4,28.0,5.7,'11111222,11111222,11111222' 
TCOON,ioos:station:TCOON:009:1,2017-12-01T15:00:00Z,27.8398,-97.0727,0.0,4.8,26.0,5.3,'11111222,11111222,11111222' 
TCOON,ioos:station:TCOON:009:1,2017-12-01T15:06:00Z,27.8398,-97.0727,0.0,4.1,30.0,5.5,'11111222,11111222,11111222' 
TCOON,ioos:station:TCOON:009:1,2017-12-01T15:12:00Z,27.8398,-97.0727,0.0,4.7,32.0,5.4,'11111222,11111222,11111222' 
TCOON,ioos:station:TCOON:009:1,2017-12-01T15:18:00Z,27.8398,-97.0727,0.0,4.7,32.0,5.4,'1111122,1111122,1111122' 
TCOON,ioos:station:TCOON:009:1,2017-12-01T15:24:00Z,27.8398,-97.0727,0.0,5.1,29.0,5.8,'11111222,11111222,11111222' 
TCOON,ioos:station:TCOON:009:1,2017-12-01T15:30:00Z,27.8398,-97.0727,0.0,4.9,32.0,6.1,'11111222,11111222,11111222' 
TCOON,ioos:station:TCOON:009:1,2017-12-01T15:36:00Z,27.8398,-97.0727,0.0,5.1,34.0,6.4,'11111222,11111222,11111222' 
TCOON,ioos:station:TCOON:009:1,2017-12-01T15:42:00Z,27.8398,-97.0727,0.0,5.4,27.0,6.0,'11111222,11111222,11111222' 
TCOON,ioos:station:TCOON:009:1,2017-12-01T15:48:00Z,27.8398,-97.0727,0.0,5.4,33.0,6.3,'11111222,11111222,11111222' 
TCOON,ioos:station:TCOON:009:1,2017-12-01T15:54:00Z,27.8398,-97.0727,0.0,5.3,28.0,6.5,'11111222,11111222,11111222' 
TCOON,ioos:station:TCOON:009:1,2017-12-01T16:00:00Z,27.8398,-97.0727,0.0,5.2,32.0,6.3,'11111222,11111222,11111222' 
TCOON,ioos:station:TCOON:009:1,2017-12-01T16:06:00Z,27.8398,-97.0727,0.0,5.0,33.0,6.4,'11111222,11111222,11111222' 
TCOON,ioos:station:TCOON:009:1,2017-12-01T16:12:00Z,27.8398,-97.0727,0.0,4.8,34.0,6.0,'11111222,11111222,11111222' 
TCOON,ioos:station:TCOON:009:1,2017-12-01T16:18:00Z,27.8398,-97.0727,0.0,4.8,34.0,6.0,'1111122,1111122,1111122' 
TCOON,ioos:station:TCOON:009:1,2017-12-01T16:24:00Z,27.8398,-97.0727,0.0,5.1,37.0,6.1,'11111222,11111222,11111222' 
TCOON,ioos:station:TCOON:009:1,2017-12-01T16:30:00Z,27.8398,-97.0727,0.0,4.6,51.0,5.6,'11111222,11111222,11111222' 
TCOON,ioos:station:TCOON:009:1,2017-12-01T16:36:00Z,27.8398,-97.0727,0.0,4.5,50.0,6.2,'11111222,11111222,11111222' 
TCOON,ioos:station:TCOON:009:1,2017-12-01T16:42:00Z,27.8398,-97.0727,0.0,4.6,51.0,5.9,'11111222,11111222,11111222' 
TCOON,ioos:station:TCOON:009:1,2017-12-01T16:48:00Z,27.8398,-97.0727,0.0,4.8,55.0,5.8,'11111222,11111222,11111222' 
TCOON,ioos:station:TCOON:009:1,2017-12-01T16:54:00Z,27.8398,-97.0727,0.0,4.6,59.0,5.6,'11111222,11111222,11111222' 
TCOON,ioos:station:TCOON:009:1,2017-12-01T17:00:00Z,27.8398,-97.0727,0.0,4.7,53.0,5.6,'11111222,11111222,11111222' 
TCOON,ioos:station:TCOON:009:1,2017-12-01T17:06:00Z,27.8398,-97.0727,0.0,4.3,53.0,5.8,'11111222,11111222,11111222' 
TCOON,ioos:station:TCOON:009:1,2017-12-01T17:12:00Z,27.8398,-97.0727,0.0,4.8,56.0,5.8,'11111222,11111222,11111222' 
TCOON,ioos:station:TCOON:009:1,2017-12-01T17:18:00Z,27.8398,-97.0727,0.0,4.8,56.0,5.8,'1111122,1111122,1111122' 
TCOON,ioos:station:TCOON:009:1,2017-12-01T17:24:00Z,27.8398,-97.0727,0.0,4.1,60.0,5.8,'11111222,11111222,11111222' 
TCOON,ioos:station:TCOON:009:1,2017-12-01T17:30:00Z,27.8398,-97.0727,0.0,4.1,53.0,5.3,'11111222,11111222,11111222' 
TCOON,ioos:station:TCOON:009:1,2017-12-01T17:36:00Z,27.8398,-97.0727,0.0,4.4,49.0,5.9,'11111222,11111222,11111222' 
TCOON,ioos:station:TCOON:009:1,2017-12-01T17:42:00Z,27.8398,-97.0727,0.0,3.4,66.0,4.6,'11111222,11111222,11111222' 
TCOON,ioos:station:TCOON:009:1,2017-12-01T17:48:00Z,27.8398,-97.0727,0.0,3.8,67.0,5.1,'11111222,11111222,11111222' 
TCOON,ioos:station:TCOON:009:1,2017-12-01T17:54:00Z,27.8398,-97.0727,0.0,3.7,62.0,5.1,'11111222,11111222,11111222' 
TCOON,ioos:station:TCOON:009:1,2017-12-01T18:00:00Z,27.8398,-97.0727,0.0,4.3,68.0,5.4,'11111222,11111222,11111222' 
TCOON,ioos:station:TCOON:009:1,2017-12-01T18:06:00Z,27.8398,-97.0727,0.0,3.6,67.0,5.4,'11111222,11111222,11111222' 
TCOON,ioos:station:TCOON:009:1,2017-12-01T18:12:00Z,27.8398,-97.0727,0.0,4.2,55.0,5.6,'11111222,11111222,11111222' 
TCOON,ioos:station:TCOON:009:1,2017-12-01T18:18:00Z,27.8398,-97.0727,0.0,4.2,55.0,5.6,'1111122,1111122,1111122' 
TCOON,ioos:station:TCOON:009:1,2017-12-01T18:24:00Z,27.8398,-97.0727,0.0,3.5,71.0,4.9,'11111222,11111222,11111222' 
TCOON,ioos:station:TCOON:009:1,2017-12-01T18:30:00Z,27.8398,-97.0727,0.0,4.6,58.0,5.5,'11111222,11111222,11111222' 
TCOON,ioos:station:TCOON:009:1,2017-12-01T18:36:00Z,27.8398,-97.0727,0.0,3.4,74.0,5.2,'11111222,11111222,11111222' 
TCOON,ioos:station:TCOON:009:1,2017-12-01T18:42:00Z,27.8398,-97.0727,0.0,4.3,65.0,5.0,'11111222,11111222,11111222' 
TCOON,ioos:station:TCOON:009:1,2017-12-01T18:48:00Z,27.8398,-97.0727,0.0,3.6,58.0,5.3,'11111222,11111222,11111222' 
TCOON,ioos:station:TCOON:009:1,2017-12-01T18:54:00Z,27.8398,-97.0727,0.0,3.6,64.0,4.5,'11111222,11111222,11111222' 
TCOON,ioos:station:TCOON:009:1,2017-12-01T19:00:00Z,27.8398,-97.0727,0.0,3.3,77.0,4.6,'11111222,11111222,11111222' 
TCOON,ioos:station:TCOON:009:1,2017-12-01T19:06:00Z,27.8398,-97.0727,0.0,3.3,53.0,4.7,'11111222,11111222,11111222' 
TCOON,ioos:station:TCOON:009:1,2017-12-01T19:12:00Z,27.8398,-97.0727,0.0,3.2,75.0,5.4,'11111222,11111222,11111222' 
TCOON,ioos:station:TCOON:009:1,2017-12-01T19:18:00Z,27.8398,-97.0727,0.0,3.2,75.0,5.4,'1111122,1111122,1111122' 
TCOON,ioos:station:TCOON:009:1,2017-12-01T19:24:00Z,27.8398,-97.0727,0.0,3.6,69.0,5.0,'11111222,11111222,11111222' 
TCOON,ioos:station:TCOON:009:1,2017-12-01T19:30:00Z,27.8398,-97.0727,0.0,4.0,57.0,4.9,'11111222,11111222,11111222' 
TCOON,ioos:station:TCOON:009:1,2017-12-01T19:36:00Z,27.8398,-97.0727,0.0,3.0,73.0,4.0,'11111222,11111222,11111222' 
TCOON,ioos:station:TCOON:009:1,2017-12-01T19:42:00Z,27.8398,-97.0727,0.0,2.9,76.0,4.5,'11111222,11111222,11111222' 
TCOON,ioos:station:TCOON:009:1,2017-12-01T19:48:00Z,27.8398,-97.0727,0.0,3.4,64.0,4.6,'11111222,11111222,11111222' 
TCOON,ioos:station:TCOON:009:1,2017-12-01T19:54:00Z,27.8398,-97.0727,0.0,3.6,74.0,4.4,'11111222,11111222,11111222' 
TCOON,ioos:station:TCOON:009:1,2017-12-01T20:00:00Z,27.8398,-97.0727,0.0,3.4,76.0,4.7,'11111222,11111222,11111222' 
TCOON,ioos:station:TCOON:009:1,2017-12-01T20:06:00Z,27.8398,-97.0727,0.0,3.7,76.0,4.7,'11111222,11111222,11111222' 
TCOON,ioos:station:TCOON:009:1,2017-12-01T20:12:00Z,27.8398,-97.0727,0.0,3.5,68.0,4.5,'11111222,11111222,11111222' 
TCOON,ioos:station:TCOON:009:1,2017-12-01T20:18:00Z,27.8398,-97.0727,0.0,3.5,68.0,4.5,'1111122,1111122,1111122' 
TCOON,ioos:station:TCOON:009:1,2017-12-01T20:24:00Z,27.8398,-97.0727,0.0,3.4,76.0,4.5,'11111222,11111222,11111222' 
TCOON,ioos:station:TCOON:009:1,2017-12-01T20:30:00Z,27.8398,-97.0727,0.0,2.8,75.0,4.6,'11111222,11111222,11111222' 